Location: Holcomb Observatory and Planetarium
(39.8415°N, 86.1714°W)
Time: 15:32:28
(UTC-05:00)

Hubble Space Telescope - Visible Passes

Search period start: 02 March 2015 00:00
Search period end: 12 March 2015 01:00
Orbit: 543 x 548 km, 28.5° (Epoch: 01 March)

Date Brightness Start Highest point End Pass type
(mag) Time Alt. Az. Time Alt. Az. Time Alt. Az.
02 Mar 2.8 05:27:42 17° S 05:27:42 17° S 05:30:17 10° SE visible
03 Mar 2.9 05:19:58 16° S 05:19:58 16° S 05:21:54 10° SE visible
04 Mar 3.1 05:12:16 14° SSE 05:12:16 14° SSE 05:13:26 10° SSE visible
05 Mar 3.4 05:04:35 11° SSE 05:04:35 11° SSE 05:04:53 10° SSE visible
